Time,TemperatureF,DewpointF,PressureIn,WindDirection,WindDirectionDegrees,WindSpeedMPH,WindSpeedGustMPH,Humidity,HourlyPrecipIn,Conditions,Clouds,dailyrainin,SoftwareType,DateUTC
2013-03-03 00:00:00,38.0,27.0,-100.00,ESE,107,5.0,8.0,65,-99.99,,,-99.99,,2013-03-03 08:00:00,
2013-03-03 00:01:00,37.0,26.0,-100.00,East,97,2.0,5.0,65,-99.99,,,-99.99,,2013-03-03 08:01:00,
2013-03-03 00:11:00,38.0,27.0,-100.00,ENE,72,1.0,3.0,65,-99.99,,,-99.99,,2013-03-03 08:11:00,
2013-03-03 00:21:00,39.0,25.0,-100.00,ENE,73,2.0,4.0,58,-99.99,,,-99.99,,2013-03-03 08:21:00,
2013-03-03 00:31:00,39.0,25.0,-100.00,East,92,4.0,6.0,57,-99.99,,,-99.99,,2013-03-03 08:31:00,
2013-03-03 00:41:00,38.0,27.0,-100.00,ESE,107,5.0,8.0,65,-99.99,,,-99.99,,2013-03-03 08:41:00,
2013-03-03 00:53:00,38.0,27.0,-100.00,ESE,107,5.0,8.0,65,-99.99,,,-99.99,,2013-03-03 08:53:00,
2013-03-03 01:11:00,39.0,25.0,-100.00,SSE,150,4.0,7.0,58,-99.99,,,-99.99,,2013-03-03 09:11:00,
2013-03-03 01:21:00,39.0,25.0,-100.00,SE,134,5.0,9.0,56,-99.99,,,-99.99,,2013-03-03 09:21:00,
2013-03-03 01:32:00,39.0,25.0,-100.00,SSW,206,2.0,5.0,57,-99.99,,,-99.99,,2013-03-03 09:32:00,
2013-03-03 01:41:00,39.0,25.0,-100.00,SSW,206,2.0,5.0,57,-99.99,,,-99.99,,2013-03-03 09:41:00,
2013-03-03 01:51:00,39.0,26.0,-100.00,SSE,167,4.0,6.0,59,-99.99,,,-99.99,,2013-03-03 09:51:00,
2013-03-03 02:01:00,38.0,26.0,-100.00,ESE,123,5.0,8.0,60,-99.99,,,-99.99,,2013-03-03 10:01:00,
2013-03-03 02:11:00,39.0,25.0,-100.00,SE,128,7.0,12.0,56,-99.99,,,-99.99,,2013-03-03 10:11:00,
2013-03-03 02:21:00,40.0,24.0,-100.00,SE,133,8.0,11.0,54,-99.99,,,-99.99,,2013-03-03 10:21:00,
2013-03-03 02:32:00,40.0,24.0,-100.00,SSE,154,7.0,10.0,53,-99.99,,,-99.99,,2013-03-03 10:32:00,
2013-03-03 02:42:00,40.0,24.0,-100.00,SSE,154,7.0,10.0,53,-99.99,,,-99.99,,2013-03-03 10:42:00,
2013-03-03 02:52:00,41.0,23.0,-100.00,South,176,5.0,9.0,47,-99.99,,,-99.99,,2013-03-03 10:52:00,
2013-03-03 03:01:00,40.0,23.0,-100.00,South,184,4.0,7.0,50,-99.99,,,-99.99,,2013-03-03 11:01:00,
2013-03-03 03:11:00,39.0,24.0,-100.00,North,350,1.0,5.0,54,-99.99,,,-99.99,,2013-03-03 11:11:00,
2013-03-03 03:21:00,38.0,26.0,-100.00,ENE,75,4.0,6.0,61,-99.99,,,-99.99,,2013-03-03 11:21:00,
2013-03-03 03:31:00,37.0,27.0,-100.00,East,82,4.0,6.0,68,-99.99,,,-99.99,,2013-03-03 11:31:00,
2013-03-03 03:42:00,37.0,27.0,-100.00,East,82,4.0,6.0,68,-99.99,,,-99.99,,2013-03-03 11:42:00,
2013-03-03 03:52:00,37.0,27.0,-100.00,ESE,114,4.0,7.0,66,-99.99,,,-99.99,,2013-03-03 11:52:00,
2013-03-03 04:01:00,37.0,27.0,-100.00,SSE,164,4.0,7.0,66,-99.99,,,-99.99,,2013-03-03 12:01:00,
2013-03-03 04:11:00,37.0,26.0,-100.00,South,172,6.0,9.0,64,-99.99,,,-99.99,,2013-03-03 12:11:00,
2013-03-03 04:21:00,37.0,26.0,-100.00,South,172,6.0,9.0,64,-99.99,,,-99.99,,2013-03-03 12:21:00,
2013-03-03 04:32:00,36.0,26.0,-100.00,SSE,148,7.0,9.0,67,-99.99,,,-99.99,,2013-03-03 12:32:00,
2013-03-03 04:42:00,36.0,26.0,-100.00,SE,140,7.0,9.0,69,-99.99,,,-99.99,,2013-03-03 12:42:00,
2013-03-03 04:52:00,36.0,26.0,-100.00,SSE,164,7.0,8.0,69,-99.99,,,-99.99,,2013-03-03 12:52:00,
2013-03-03 05:01:00,36.0,26.0,-100.00,South,174,8.0,9.0,66,-99.99,,,-99.99,,2013-03-03 13:01:00,
2013-03-03 05:11:00,36.0,26.0,-100.00,South,185,7.0,9.0,66,-99.99,,,-99.99,,2013-03-03 13:11:00,
2013-03-03 05:21:00,36.0,26.0,-100.00,South,184,7.0,10.0,65,-99.99,,,-99.99,,2013-03-03 13:21:00,
2013-03-03 05:32:00,36.0,26.0,-100.00,South,188,7.0,9.0,66,-99.99,,,-99.99,,2013-03-03 13:32:00,
2013-03-03 05:42:00,36.0,25.0,-100.00,South,182,7.0,9.0,65,-99.99,,,-99.99,,2013-03-03 13:42:00,
2013-03-03 05:51:00,36.0,25.0,-100.00,South,182,7.0,9.0,65,-99.99,,,-99.99,,2013-03-03 13:51:00,
2013-03-03 06:01:00,35.0,26.0,-100.00,SSE,161,6.0,8.0,68,-99.99,,,-99.99,,2013-03-03 14:01:00,
2013-03-03 06:11:00,35.0,26.0,-100.00,South,172,7.0,11.0,68,-99.99,,,-99.99,,2013-03-03 14:11:00,
2013-03-03 06:21:00,34.0,26.0,-100.00,SSW,205,7.0,11.0,73,-99.99,,,-99.99,,2013-03-03 14:21:00,
2013-03-03 06:31:00,36.0,25.0,-100.00,NNE,20,4.0,12.0,62,-99.99,,,-99.99,,2013-03-03 14:31:00,
2013-03-03 06:42:00,37.0,23.0,-100.00,NNE,27,4.0,7.0,56,-99.99,,,-99.99,,2013-03-03 14:42:00,
2013-03-03 06:52:00,35.0,26.0,-100.00,NE,48,3.0,4.0,68,-99.99,,,-99.99,,2013-03-03 14:52:00,
2013-03-03 07:01:00,35.0,25.0,-100.00,East,80,1.0,3.0,68,-99.99,,,-99.99,,2013-03-03 15:01:00,
2013-03-03 07:11:00,35.0,25.0,-100.00,East,80,1.0,3.0,68,-99.99,,,-99.99,,2013-03-03 15:11:00,
2013-03-03 07:22:00,35.0,26.0,-100.00,East,99,6.0,8.0,70,-99.99,,,-99.99,,2013-03-03 15:22:00,
2013-03-03 07:32:00,35.0,26.0,-100.00,East,99,6.0,8.0,70,-99.99,,,-99.99,,2013-03-03 15:32:00,
2013-03-03 07:42:00,36.0,27.0,-100.00,ESE,109,6.0,8.0,70,-99.99,,,-99.99,,2013-03-03 15:42:00,
2013-03-03 07:52:00,36.0,27.0,-100.00,ESE,109,6.0,8.0,70,-99.99,,,-99.99,,2013-03-03 15:52:00,
2013-03-03 08:01:00,36.0,27.0,-100.00,West,275,2.0,5.0,69,-99.99,,,-99.99,,2013-03-03 16:01:00,
2013-03-03 08:12:00,36.0,26.0,-100.00,SE,131,0.0,2.0,66,-99.99,,,-99.99,,2013-03-03 16:12:00,
2013-03-03 08:21:00,37.0,27.0,-100.00,SE,136,1.0,3.0,69,-99.99,,,-99.99,,2013-03-03 16:21:00,
2013-03-03 08:31:00,39.0,25.0,-100.00,South,186,2.0,3.0,57,-99.99,,,-99.99,,2013-03-03 16:31:00,
2013-03-03 08:42:00,40.0,24.0,-100.00,SSW,212,2.0,3.0,53,-99.99,,,-99.99,,2013-03-03 16:42:00,
2013-03-03 08:51:00,40.0,24.0,-100.00,SSW,212,2.0,3.0,53,-99.99,,,-99.99,,2013-03-03 16:51:00,
2013-03-03 09:01:00,41.0,24.0,-100.00,WSW,256,1.0,5.0,52,-99.99,,,-99.99,,2013-03-03 17:01:00,
2013-03-03 09:11:00,41.0,25.0,-100.00,NNE,25,0.0,2.0,52,-99.99,,,-99.99,,2013-03-03 17:11:00,
2013-03-03 09:22:00,42.0,25.0,-100.00,NNW,344,0.0,2.0,51,-99.99,,,-99.99,,2013-03-03 17:22:00,
2013-03-03 09:32:00,42.0,26.0,-100.00,NE,41,0.0,2.0,51,-99.99,,,-99.99,,2013-03-03 17:32:00,
2013-03-03 09:42:00,43.0,26.0,-100.00,North,360,0.0,2.0,52,-99.99,,,-99.99,,2013-03-03 17:42:00,
2013-03-03 09:52:00,42.0,27.0,-100.00,NW,320,2.0,5.0,54,-99.99,,,-99.99,,2013-03-03 17:52:00,
2013-03-03 10:01:00,43.0,28.0,-100.00,NW,308,3.0,6.0,55,-99.99,,,-99.99,,2013-03-03 18:01:00,
2013-03-03 10:11:00,42.0,28.0,-100.00,NW,305,5.0,7.0,57,-99.99,,,-99.99,,2013-03-03 18:11:00,
2013-03-03 10:21:00,43.0,30.0,-100.00,NW,319,6.0,12.0,61,-99.99,,,-99.99,,2013-03-03 18:21:00,
2013-03-03 10:31:00,42.0,28.0,-100.00,NW,326,10.0,13.0,57,-99.99,,,-99.99,,2013-03-03 18:31:00,
2013-03-03 10:42:00,42.0,28.0,-100.00,NW,326,10.0,13.0,57,-99.99,,,-99.99,,2013-03-03 18:42:00,
2013-03-03 10:52:00,42.0,31.0,-100.00,NNW,328,11.0,15.0,63,-99.99,,,-99.99,,2013-03-03 18:52:00,
2013-03-03 11:01:00,43.0,31.0,-100.00,NNW,333,12.0,16.0,63,-99.99,,,-99.99,,2013-03-03 19:01:00,
2013-03-03 11:11:00,43.0,32.0,-100.00,NNW,330,12.0,18.0,66,-99.99,,,-99.99,,2013-03-03 19:11:00,
2013-03-03 11:21:00,42.0,32.0,-100.00,NW,322,14.0,19.0,67,-99.99,,,-99.99,,2013-03-03 19:21:00,
2013-03-03 11:31:00,42.0,32.0,-100.00,NW,326,14.0,19.0,67,-99.99,,,-99.99,,2013-03-03 19:31:00,
2013-03-03 11:42:00,42.0,31.0,-100.00,NNW,329,14.0,20.0,65,-99.99,,,-99.99,,2013-03-03 19:42:00,
2013-03-03 11:51:00,43.0,32.0,-100.00,NW,320,15.0,20.0,66,-99.99,,,-99.99,,2013-03-03 19:51:00,
2013-03-03 12:01:00,42.0,33.0,-100.00,NW,320,15.0,20.0,70,-99.99,,,-99.99,,2013-03-03 20:01:00,
2013-03-03 12:11:00,41.0,34.0,-100.00,NW,326,14.0,19.0,74,-99.99,,,-99.99,,2013-03-03 20:11:00,
2013-03-03 12:21:00,41.0,35.0,-100.00,NW,326,14.0,18.0,76,-99.99,,,-99.99,,2013-03-03 20:21:00,
2013-03-03 12:32:00,42.0,34.0,-100.00,NW,322,13.0,18.0,72,-99.99,,,-99.99,,2013-03-03 20:32:00,
2013-03-03 12:42:00,42.0,34.0,-100.00,NNW,328,12.0,17.0,74,-99.99,,,-99.99,,2013-03-03 20:42:00,
2013-03-03 12:52:00,41.0,34.0,-100.00,NNW,336,11.0,15.0,74,-99.99,,,-99.99,,2013-03-03 20:52:00,
2013-03-03 13:01:00,41.0,34.0,-100.00,NNW,336,11.0,15.0,74,-99.99,,,-99.99,,2013-03-03 21:01:00,
2013-03-03 13:11:00,41.0,34.0,-100.00,NNW,333,10.0,14.0,75,-99.99,,,-99.99,,2013-03-03 21:11:00,
2013-03-03 13:21:00,42.0,34.0,-100.00,NNW,337,10.0,16.0,74,-99.99,,,-99.99,,2013-03-03 21:21:00,
2013-03-03 13:32:00,42.0,33.0,-100.00,NNW,328,10.0,15.0,70,-99.99,,,-99.99,,2013-03-03 21:32:00,
2013-03-03 13:41:00,42.0,33.0,-100.00,NW,320,10.0,15.0,70,-99.99,,,-99.99,,2013-03-03 21:41:00,
2013-03-03 13:52:00,42.0,33.0,-100.00,NW,320,10.0,15.0,70,-99.99,,,-99.99,,2013-03-03 21:52:00,
2013-03-03 14:01:00,42.0,32.0,-100.00,NW,322,11.0,15.0,67,-99.99,,,-99.99,,2013-03-03 22:01:00,
2013-03-03 14:11:00,42.0,33.0,-100.00,NW,322,9.0,13.0,68,-99.99,,,-99.99,,2013-03-03 22:11:00,
2013-03-03 14:21:00,42.0,33.0,-100.00,NW,316,9.0,14.0,69,-99.99,,,-99.99,,2013-03-03 22:21:00,
2013-03-03 14:32:00,42.0,32.0,-100.00,NNW,328,10.0,14.0,69,-99.99,,,-99.99,,2013-03-03 22:32:00,
2013-03-03 14:42:00,41.0,33.0,-100.00,NW,323,10.0,14.0,73,-99.99,,,-99.99,,2013-03-03 22:42:00,
2013-03-03 14:52:00,42.0,34.0,-100.00,NW,322,11.0,15.0,73,-99.99,,,-99.99,,2013-03-03 22:52:00,
2013-03-03 15:01:00,41.0,33.0,-100.00,NW,325,11.0,15.0,71,-99.99,,,-99.99,,2013-03-03 23:01:00,
2013-03-03 15:11:00,41.0,33.0,-100.00,NW,326,11.0,15.0,71,-99.99,,,-99.99,,2013-03-03 23:11:00,
2013-03-03 15:21:00,41.0,32.0,-100.00,NW,325,11.0,16.0,69,-99.99,,,-99.99,,2013-03-03 23:21:00,
2013-03-03 15:31:00,42.0,33.0,-100.00,NW,322,11.0,16.0,70,-99.99,,,-99.99,,2013-03-03 23:31:00,
2013-03-03 15:41:00,41.0,32.0,-100.00,NNW,329,11.0,14.0,69,-99.99,,,-99.99,,2013-03-03 23:41:00,
2013-03-03 15:52:00,41.0,32.0,-100.00,NW,325,11.0,14.0,69,-99.99,,,-99.99,,2013-03-03 23:52:00,
2013-03-03 16:01:00,41.0,32.0,-100.00,NW,325,11.0,14.0,69,-99.99,,,-99.99,,2013-03-04 00:01:00,
2013-03-03 16:21:00,41.0,32.0,-100.00,NNW,330,9.0,12.0,69,-99.99,,,-99.99,,2013-03-04 00:21:00,
2013-03-03 16:32:00,41.0,32.0,-100.00,NW,325,9.0,15.0,68,-99.99,,,-99.99,,2013-03-04 00:32:00,
2013-03-03 16:42:00,41.0,32.0,-100.00,NW,325,12.0,17.0,70,-99.99,,,-99.99,,2013-03-04 00:42:00,
2013-03-03 16:51:00,40.0,32.0,-100.00,NW,325,11.0,17.0,73,-99.99,,,-99.99,,2013-03-04 00:51:00,
2013-03-03 17:01:00,40.0,32.0,-100.00,NNW,328,11.0,15.0,74,-99.99,,,-99.99,,2013-03-04 01:01:00,
2013-03-03 17:11:00,40.0,32.0,-100.00,NNW,328,11.0,15.0,74,-99.99,,,-99.99,,2013-03-04 01:11:00,
2013-03-03 17:31:00,38.0,33.0,-100.00,NNW,332,11.0,15.0,80,-99.99,,,-99.99,,2013-03-04 01:31:00,
2013-03-03 17:42:00,38.0,33.0,-100.00,NNW,333,9.0,12.0,82,-99.99,,,-99.99,,2013-03-04 01:42:00,
2013-03-03 17:52:00,37.0,33.0,-100.00,NNW,335,8.0,11.0,85,-99.99,,,-99.99,,2013-03-04 01:52:00,
2013-03-03 18:01:00,37.0,33.0,-100.00,NNW,335,8.0,11.0,85,-99.99,,,-99.99,,2013-03-04 02:01:00,
2013-03-03 18:11:00,37.0,33.0,-100.00,NW,322,4.0,7.0,88,-99.99,,,-99.99,,2013-03-04 02:11:00,
2013-03-03 18:22:00,36.0,33.0,-100.00,NW,320,3.0,5.0,88,-99.99,,,-99.99,,2013-03-04 02:22:00,
2013-03-03 18:31:00,36.0,33.0,-100.00,NNW,335,2.0,3.0,89,-99.99,,,-99.99,,2013-03-04 02:31:00,
2013-03-03 18:42:00,36.0,33.0,-100.00,NNW,332,0.0,2.0,89,-99.99,,,-99.99,,2013-03-04 02:42:00,
2013-03-03 18:52:00,36.0,33.0,-100.00,North,-999,0.0,0.0,89,-99.99,,,-99.99,,2013-03-04 02:52:00,
2013-03-03 19:01:00,36.0,33.0,-100.00,North,-999,0.0,0.0,89,-99.99,,,-99.99,,2013-03-04 03:01:00,
2013-03-03 19:11:00,36.0,33.0,-100.00,North,-999,0.0,0.0,89,-99.99,,,-99.99,,2013-03-04 03:11:00,
2013-03-03 19:21:00,34.0,33.0,-100.00,SSE,157,4.0,5.0,93,-99.99,,,-99.99,,2013-03-04 03:21:00,
2013-03-03 19:32:00,34.0,33.0,-100.00,SSE,158,4.0,5.0,94,-99.99,,,-99.99,,2013-03-04 03:32:00,
2013-03-03 19:41:00,33.0,32.0,-100.00,SE,134,4.0,6.0,96,-99.99,,,-99.99,,2013-03-04 03:41:00,
2013-03-03 19:52:00,33.0,32.0,-100.00,ESE,106,5.0,7.0,97,-99.99,,,-99.99,,2013-03-04 03:52:00,
2013-03-03 20:01:00,33.0,32.0,-100.00,ESE,121,6.0,7.0,96,-99.99,,,-99.99,,2013-03-04 04:01:00,
2013-03-03 20:11:00,33.0,32.0,-100.00,ESE,110,6.0,6.0,96,-99.99,,,-99.99,,2013-03-04 04:11:00,
2013-03-03 20:22:00,33.0,32.0,-100.00,ESE,106,4.0,6.0,97,-99.99,,,-99.99,,2013-03-04 04:22:00,
2013-03-03 20:32:00,32.0,31.0,-100.00,SE,131,2.0,4.0,96,-99.99,,,-99.99,,2013-03-04 04:32:00,
2013-03-03 20:42:00,32.0,32.0,-100.00,North,-999,0.0,0.0,97,-99.99,,,-99.99,,2013-03-04 04:42:00,
2013-03-03 20:51:00,32.0,32.0,-100.00,North,-999,0.0,0.0,97,-99.99,,,-99.99,,2013-03-04 04:51:00,
2013-03-03 21:01:00,32.0,31.0,-100.00,South,188,1.0,4.0,96,-99.99,,,-99.99,,2013-03-04 05:01:00,
2013-03-03 21:11:00,31.0,31.0,-100.00,ESE,106,2.0,5.0,97,-99.99,,,-99.99,,2013-03-04 05:11:00,
2013-03-03 21:22:00,32.0,31.0,-100.00,ENE,71,1.0,5.0,97,-99.99,,,-99.99,,2013-03-04 05:22:00,
2013-03-03 21:31:00,31.0,30.0,-100.00,ENE,76,3.0,6.0,97,-99.99,,,-99.99,,2013-03-04 05:31:00,
2013-03-03 21:42:00,31.0,30.0,-100.00,ENE,76,3.0,6.0,97,-99.99,,,-99.99,,2013-03-04 05:42:00,
2013-03-03 21:52:00,31.0,30.0,-100.00,ENE,73,3.0,4.0,98,-99.99,,,-99.99,,2013-03-04 05:52:00,
2013-03-03 22:01:00,31.0,30.0,-100.00,NE,42,2.0,4.0,98,-99.99,,,-99.99,,2013-03-04 06:01:00,
2013-03-03 22:11:00,31.0,31.0,-100.00,NNW,342,1.0,3.0,97,-99.99,,,-99.99,,2013-03-04 06:11:00,
2013-03-03 22:21:00,31.0,31.0,-100.00,NNW,342,1.0,3.0,97,-99.99,,,-99.99,,2013-03-04 06:21:00,
2013-03-03 22:31:00,29.0,29.0,-100.00,North,-999,0.0,0.0,97,-99.99,,,-99.99,,2013-03-04 06:31:00,
2013-03-03 22:42:00,30.0,29.0,-100.00,ENE,66,1.0,3.0,98,-99.99,,,-99.99,,2013-03-04 06:42:00,
2013-03-03 22:52:00,30.0,29.0,-100.00,NE,35,0.0,3.0,98,-99.99,,,-99.99,,2013-03-04 06:52:00,
2013-03-03 23:01:00,30.0,30.0,-100.00,North,-999,0.0,0.0,98,-99.99,,,-99.99,,2013-03-04 07:01:00,
2013-03-03 23:11:00,30.0,30.0,-100.00,North,-999,0.0,0.0,98,-99.99,,,-99.99,,2013-03-04 07:11:00,
2013-03-03 23:21:00,31.0,30.0,-100.00,NNE,24,0.0,4.0,98,-99.99,,,-99.99,,2013-03-04 07:21:00,
2013-03-03 23:32:00,30.0,29.0,-100.00,North,10,3.0,5.0,96,-99.99,,,-99.99,,2013-03-04 07:32:00,
2013-03-03 23:41:00,30.0,29.0,-100.00,North,10,3.0,5.0,96,-99.99,,,-99.99,,2013-03-04 07:41:00,
2013-03-03 23:52:00,31.0,30.0,-100.00,NW,323,7.0,12.0,96,-99.99,,,-99.99,,2013-03-04 07:52:00,